Weather History for Pinedale, WY

Change the Weather History Date:

Thursday, March 21, 2013

  Actual Average (KBPI) Record (KBPI)
Temperature  
Mean Temperature 24 °F 30 °F  
Max Temperature 32 °F 44 °F 61 °F (2009)
Min Temperature 17 °F 16 °F -1 °F (1983)
Degree Days  
Heating Degree Days 40 35  
Month to date heating degree days 837  
Since 1 July heating degree days 8360  
Cooling Degree Days 0 0  
Month to date cooling degree days 0  
Year to date cooling degree days 0  
Moisture  
Dew Point 17 °F    
Average Humidity 69    
Maximum Humidity 100    
Minimum Humidity 47    
Precipitation  
Precipitation 0.00 in 0.02 in 0.16 in (2001)
Month to date precipitation 0.26  
Year to date precipitation 0.92  
Sea Level Pressure  
Sea Level Pressure 29.79 in    
Wind  
Wind Speed 11 mph (WNW)    
Max Wind Speed 25 mph    
Max Gust Speed 36 mph    
Visibility 9 miles    
Events Fog , Snow    
T = Trace of Precipitation, MM = Missing Value Source: NWS Daily Summary

Daily Weather History Graph

Daily Weather History Graph

Search for Another Location

Airport:

Trip Planner

Search our weather history database for the weather conditions in past years. The results will help you decide how hot, cold, wet, or windy it might be!

Date:

Astronomy

Mar. 21, 2013 Rise Set
Actual Time 7:20 AM MDT 7:33 PM MDT
Civil Twilight 6:51 AM MDT 8:01 PM MDT
Nautical Twilight 6:18 AM MDT 8:34 PM MDT
Astronomical Twilight 5:45 AM MDT 9:08 PM MDT
Moon 1:59 PM MDT (3/21) 3:51 AM MDT (3/21)
Length of Visible Light 13h 09m
Length of Day
12h 12m
Waxing Gibbous, 69% of the Moon is Illuminated
Mar 21
Waxing Gibbous
Mar 27
Full
Apr 2
Last Quarter
Apr 10
New
Apr 18
First Quarter

Hourly Weather History & Observations

Time (MDT) Temp. Windchill Dew Point Humidity Pressure Visibility Wind Dir Wind Speed Gust Speed Precip Events Conditions
12:15 AM 26.6 °F - 26.6 °F 100% 29.77 in 0.2 mi Calm Calm - N/A Fog Light Freezing Fog
12:35 AM 26.6 °F 21.2 °F 26.6 °F 100% 29.75 in 0.2 mi ESE 4.6 mph - N/A Fog Light Freezing Fog
12:55 AM 30.2 °F - 30.2 °F 100% 29.75 in 7.0 mi Calm Calm - N/A   Overcast
5:15 AM 32.0 °F - 32.0 °F 100% 29.63 in 1.0 mi Calm Calm - N/A Snow Snow
5:35 AM 32.0 °F - 32.0 °F 100% 29.62 in 3.0 mi Calm Calm - N/A Snow Light Snow
5:55 AM 30.2 °F - 30.2 °F 100% 29.63 in 5.0 mi Calm Calm - N/A   Overcast
6:15 AM 30.2 °F 17.1 °F 30.2 °F 100% 29.66 in 1.2 mi West 21.9 mph 29.9 mph N/A Snow Light Snow
6:35 AM 30.2 °F 18.5 °F 23.0 °F 75% 29.66 in 10.0 mi WNW 17.3 mph 25.3 mph N/A   Overcast
6:55 AM 28.4 °F 15.1 °F 21.2 °F 74% 29.68 in 10.0 mi West 20.7 mph 28.8 mph N/A   Overcast
7:15 AM 26.6 °F 16.2 °F 19.4 °F 74% 29.68 in 10.0 mi WNW 11.5 mph - N/A   Overcast
7:35 AM 26.6 °F 12.7 °F 19.4 °F 74% 29.70 in 10.0 mi WNW 20.7 mph - N/A   Mostly Cloudy
7:55 AM 26.6 °F 14.3 °F 19.4 °F 74% 29.70 in 10.0 mi WNW 16.1 mph - N/A   Mostly Cloudy
8:15 AM 24.8 °F 13.4 °F 21.2 °F 86% 29.71 in 10.0 mi West 12.7 mph - N/A   Scattered Clouds
8:35 AM 26.6 °F 17.5 °F 21.2 °F 80% 29.70 in 10.0 mi WNW 9.2 mph - N/A   Mostly Cloudy
8:55 AM 26.6 °F 16.8 °F 21.2 °F 80% 29.70 in 10.0 mi West 10.4 mph - N/A   Overcast
9:15 AM 26.6 °F 15.2 °F 21.2 °F 80% 29.69 in 10.0 mi West 13.8 mph - N/A   Overcast
9:35 AM 26.6 °F 13.8 °F 19.4 °F 74% 29.71 in 10.0 mi WNW 17.3 mph 21.9 mph N/A   Overcast
9:55 AM 26.6 °F 11.7 °F 17.6 °F 69% 29.72 in 2.5 mi WNW 24.2 mph 35.7 mph N/A Snow Light Snow
10:35 AM 26.6 °F 14.3 °F 15.8 °F 64% 29.74 in 10.0 mi West 16.1 mph - N/A   Clear
10:55 AM 26.6 °F 13.4 °F 15.8 °F 64% 29.75 in 10.0 mi West 18.4 mph 25.3 mph N/A   Clear
11:15 AM 28.4 °F 14.7 °F 14.0 °F 55% 29.75 in 10.0 mi WNW 21.9 mph 26.5 mph N/A   Scattered Clouds
11:35 AM 28.4 °F 15.8 °F 15.8 °F 59% 29.77 in 10.0 mi WNW 18.4 mph 24.2 mph N/A   Scattered Clouds
11:55 AM 28.4 °F 16.6 °F 15.8 °F 59% 29.76 in 10.0 mi West 16.1 mph 20.7 mph N/A   Scattered Clouds
12:15 PM 28.4 °F 15.8 °F 17.6 °F 64% 29.76 in 10.0 mi West 18.4 mph 21.9 mph N/A   Scattered Clouds
12:35 PM 30.2 °F 17.4 °F 17.6 °F 60% 29.76 in 10.0 mi West 20.7 mph 27.6 mph N/A   Scattered Clouds
12:55 PM 30.2 °F 17.4 °F 17.6 °F 60% 29.77 in 10.0 mi West 20.7 mph 27.6 mph N/A   Scattered Clouds
1:15 PM 30.2 °F 16.5 °F 17.6 °F 60% 29.77 in 10.0 mi West 24.2 mph 29.9 mph N/A   Mostly Cloudy
1:35 PM 30.2 °F 17.1 °F 15.8 °F 55% 29.78 in 10.0 mi WNW 21.9 mph 28.8 mph N/A   Scattered Clouds
1:55 PM 30.2 °F 17.4 °F 17.6 °F 60% 29.79 in 10.0 mi West 20.7 mph 32.2 mph N/A   Scattered Clouds
2:15 PM 30.2 °F 17.1 °F 17.6 °F 60% 29.79 in 10.0 mi West 21.9 mph 29.9 mph N/A   Scattered Clouds
2:35 PM 30.2 °F 16.2 °F 14.0 °F 51% 29.79 in 10.0 mi West 25.3 mph 31.1 mph N/A   Clear
2:55 PM 30.2 °F 17.4 °F 14.0 °F 51% 29.79 in 10.0 mi West 20.7 mph 29.9 mph N/A   Clear
3:15 PM 30.2 °F 16.2 °F 14.0 °F 51% 29.79 in 10.0 mi West 25.3 mph 34.5 mph N/A   Clear
3:35 PM 30.2 °F 16.8 °F 14.0 °F 51% 29.80 in 10.0 mi West 23.0 mph 29.9 mph N/A   Scattered Clouds
3:55 PM 30.2 °F 17.1 °F 14.0 °F 51% 29.80 in 10.0 mi West 21.9 mph 28.8 mph N/A   Scattered Clouds
4:15 PM 30.2 °F 17.8 °F 14.0 °F 51% 29.80 in 10.0 mi West 19.6 mph 33.4 mph N/A   Scattered Clouds
4:35 PM 30.2 °F 16.2 °F 12.2 °F 47% 29.82 in 10.0 mi WNW 25.3 mph 33.4 mph N/A   Scattered Clouds
4:55 PM 30.2 °F 16.8 °F 12.2 °F 47% 29.83 in 10.0 mi WNW 23.0 mph 28.8 mph N/A   Scattered Clouds
5:15 PM 28.4 °F 15.4 °F 12.2 °F 51% 29.83 in 10.0 mi West 19.6 mph 27.6 mph N/A   Clear
5:35 PM 28.4 °F 15.8 °F 12.2 °F 51% 29.84 in 10.0 mi WNW 18.4 mph - N/A   Scattered Clouds
5:55 PM 28.4 °F 15.1 °F 12.2 °F 51% 29.85 in 10.0 mi WNW 20.7 mph 25.3 mph N/A   Clear
6:15 PM 26.6 °F 14.3 °F 12.2 °F 55% 29.85 in 10.0 mi WNW 16.1 mph 19.6 mph N/A   Clear
6:35 PM 26.6 °F 12.7 °F 10.4 °F 51% 29.85 in 10.0 mi WNW 20.7 mph 25.3 mph N/A   Clear
6:55 PM 26.6 °F 15.2 °F 12.2 °F 55% 29.85 in 10.0 mi West 13.8 mph 20.7 mph N/A   Clear
7:15 PM 24.8 °F 12.4 °F 12.2 °F 59% 29.85 in 10.0 mi West 15.0 mph 19.6 mph N/A   Clear
7:35 PM 23.0 °F 13.1 °F 12.2 °F 63% 29.85 in 10.0 mi West 9.2 mph - N/A   Clear
7:55 PM 21.2 °F 16.4 °F 12.2 °F 68% 29.87 in 10.0 mi WNW 3.5 mph - N/A   Clear
8:15 PM 19.4 °F - 12.2 °F 74% 29.87 in 10.0 mi Calm Calm - N/A   Scattered Clouds
8:35 PM 19.4 °F 14.3 °F 12.2 °F 74% 29.88 in 10.0 mi WNW 3.5 mph - N/A   Mostly Cloudy
8:55 PM 19.4 °F 14.3 °F 12.2 °F 74% 29.88 in 10.0 mi West 3.5 mph - N/A   Scattered Clouds
9:15 PM 19.4 °F 12.8 °F 12.2 °F 74% 29.89 in 10.0 mi WSW 4.6 mph - N/A   Mostly Cloudy
9:35 PM 19.4 °F 14.3 °F 14.0 °F 80% 29.89 in 10.0 mi West 3.5 mph - N/A   Overcast
9:55 PM 21.2 °F 16.4 °F 12.2 °F 68% 29.90 in 10.0 mi West 3.5 mph - N/A   Overcast
10:15 PM 19.4 °F - 12.2 °F 74% 29.89 in 10.0 mi Calm Calm - N/A   Mostly Cloudy
10:35 PM 19.4 °F - 12.2 °F 74% 29.90 in 10.0 mi Calm Calm - N/A   Mostly Cloudy
10:55 PM 19.4 °F - 12.2 °F 74% 29.90 in 10.0 mi Calm Calm - N/A   Overcast
11:15 PM 19.4 °F - 14.0 °F 80% 29.90 in 10.0 mi Calm Calm - N/A   Mostly Cloudy
11:35 PM 17.6 °F - 12.2 °F 79% 29.89 in 10.0 mi Calm Calm - N/A   Mostly Cloudy
11:55 PM 17.6 °F - 12.2 °F 79% 29.88 in 10.0 mi Calm Calm - N/A   Overcast